Flag for U.S.A. Weather past 2 weeks in Lowell, Massachusetts, U.S.A.

Now
73 °F

Partly sunny.


Feels Like: 76 °F
Forecast: 67 / 88 °F
Wind: 10 mph from Southwest

Location: Hanscom Field

Current Time: May 26, 2015 at 10:38:46 AM

Latest Report: May 26, 2015 at 9:56 AM


Visibility: 10 mi

Pressure: 30.17 "Hg

Humidity: 59%

Dew point: 58 °F

Location of LowellLocation

Historic Weather in Lowell — Graph

°F

Lowell temperature yesterday

Maximum temperature yesterday: 80 °F (at 3:56 PM)
Minimum temperature yesterday: 54 °F (at 5:56 AM)
Average temperature yesterday: 69 °F

Past Weeks' High & Low Weather Summary

 TemperatureHumidityPressure
High84 °F (May 12, 2:56 PM)97% (May 15, 3:56 AM)30.35 "Hg (May 15, 3:56 AM)
Low37 °F (May 21, 5:56 AM)18% (May 14, 12:56 PM)29.62 "Hg (May 12, 4:56 PM)
Average60 °F58%30.09 "Hg
* Reported May 11 8:56 AM — May 26 8:56 AM, Lowell, Weather by CustomWeather, © 2015

Note: Actual official high and low records may vary slightly from our data, if they occured in-between our weather recording intervals... More about our weather records

Advertising

Lowell weather history for previous 24 hours

 ConditionsComfort  
Time TempWeatherWind HumidityBarometerVisibility
8:56 AM
Tue, May 26
73 °FScattered clouds.13 mph57%30.17 "Hg10 mi
7:56 AM70 °FPassing clouds.10 mph59%30.16 "Hg10 mi
6:56 AM66 °FSunny.12 mph65%30.16 "Hg10 mi
5:56 AM65 °FClear.10 mph68%30.14 "Hg10 mi
4:56 AM65 °FPassing clouds.12 mph70%30.14 "Hg10 mi
3:56 AM66 °FClear.14 mph68%30.13 "Hg10 mi
2:56 AM66 °FClear.9 mph68%30.14 "Hg10 mi
1:56 AM68 °FClear.12 mph65%30.14 "Hg10 mi
12:56 AM68 °FPassing clouds.14 mph65%30.15 "Hg10 mi
11:56 PM
Mon, May 25
67 °FPassing clouds.8 mph73%30.16 "Hg10 mi
10:56 PM68 °FLight rain. Passing clouds.12 mph68%30.16 "Hg10 mi
9:56 PM71 °FOvercast.13 mph57%30.17 "Hg10 mi
8:56 PM72 °FMore clouds than sun.13 mph52%30.16 "Hg10 mi
7:56 PM74 °FBroken clouds.12 mph50%30.16 "Hg10 mi
6:56 PM76 °FSunny.10 mph50%30.17 "Hg10 mi
5:56 PM78 °FScattered clouds.16 mph40%30.17 "Hg10 mi
4:56 PM79 °FPartly sunny.13 mph42%30.17 "Hg10 mi
3:56 PM80 °FPartly sunny.8 mph44%30.19 "Hg10 mi
2:56 PM76 °FLight rain. Partly sunny.9 mph50%30.21 "Hg10 mi
1:56 PM76 °FOvercast.8 mph42%30.23 "Hg10 mi
12:56 PM75 °FOvercast.5 mph45%30.24 "Hg10 mi
11:56 AM75 °FOvercast.6 mph42%30.25 "Hg10 mi
10:56 AM74 °FOvercast.8 mph46%30.27 "Hg10 mi
Weather by CustomWeather, © 2015

See weather overviewHow to use our weather pages